Tracking 26257 objects as of 4-Oct-2022
HD Live streaming from Space Station
objects crossing your sky now

ZHEDA PIXING 1C

Track ZHEDA PIXING 1C now!
10-day predictions
ZHEDA PIXING 1C is classified as:


NORAD ID: 37167
Int'l Code: 2010-047C
Perigee: 614.5 km
Apogee: 648.1 km
Inclination: 97.8 °
Period: 97.2 minutes
Semi major axis: 7002 km
RCS: 0.149 m2 (medium)
Launch date: September 22, 2010
Source: People's Republic of China (PRC)
Launch site: Jiuquan Satellite Launch Center, China (JSC)
aabbcc
Your satellite tracking list
Your tracking list is empty




NASA's NSSDC Master Catalog

Two Line Element Set (TLE):
1 37167U 10047C   22276.88416382  .00001481  00000-0  19406-3 0  9992
2 37167  97.8024 247.3280 0024012  42.9283 317.3839 14.81640790649855
Source of the keplerian elements: AFSPC